Regional Weather Roundup
Issued by NWS Sioux Falls, SD

Home | Current Version | Previous Version | Graphics & Text | Print | Product List | Glossary On
Versions: 1 2 3 4 5 6 7 8 9 10 11 12 13 14 15 16 17 18 19 20 21 22 23 24 25 26 27 28 29 30 31 32 33 34 35 36 37 38 39 40 41 42 43 44 45 46 47 48 49 50
000
ASUS43 KFSD 040502
RWRFSD

WEATHER ROUNDUP FOR SE SOUTH DAKOTA/SW MINNESOTA/NW IOWA
NATIONAL WEATHER SERVICE SIOUX FALLS SD
1100 PM CST TUE MAR 03 2015

NOTE: "FAIR" INDICATES FEW OR NO CLOUDS BELOW 12,000 FEET WITH NO
SIGNIFICANT WEATHER AND OR OBSTRUCTIONS TO VISIBILITY.


SDZ038>040-050-052>070-040600-
SOUTHEAST SOUTH DAKOTA

CITY           SKY/WX    TMP DP  RH WIND       PRES   REMARKS
CHAMBERLAIN    NOT AVBL
HURON          CLEAR     -4  -9  79 NW3       30.12R
MADISON        FAIR       1   0  92 NW8       30.06R WCI -12
MITCHELL       PTCLDY     9   2  73 NW7       30.13R WCI  -2
SIOUX FALLS    MOCLDY     6  -1  73 NW7       30.08S WCI  -6
WINNER         FAIR      12   1  61 W9        30.10R WCI   0
YANKTON        MOCLDY    12   7  79 CALM      30.14R
$$

MNZ071-072-080-081-089-090-097-098-040600-
SOUTHWEST MINNESOTA

CITY           SKY/WX    TMP DP  RH WIND       PRES   REMARKS
FAIRMONT       CLEAR      9   1  72 NW13G18   30.04R WCI  -7
JACKSON        PTCLDY     9   1  72 NW12      30.05R WCI  -6
LUVERNE        PTCLDY     9   1  72 CALM      30.09R
MARSHALL       FAIR       3  -6  66 NW14      30.08S WCI -15
MONTEVIDEO     CLEAR      3   0  85 N9G16     30.09S WCI -11
PIPESTONE      PTCLDY     5  -2  72 NW10      30.04S WCI -10
REDWOOD FALLS  CLEAR      7  -4  60 NW14G24   30.06R WCI -10
TRACY          CLEAR      7  -1  70 NW14      30.06S WCI -10
WINDOM         PTCLDY     9   1  72 NW14G22   30.05R WCI  -8
WORTHINGTON    CLEAR      7  -2  66 NW14      30.07R WCI -10
$$

IAZ001>003-012>014-020>022-031-032-NEZ013-014-SDZ071-040600-
NORTHWEST IOWA

CITY           SKY/WX    TMP DP  RH WIND       PRES   REMARKS
DENISON        PTCLDY    12   5  73 N12       30.10R WCI  -2
ESTHERVILLE    PTCLDY     8   1  73 NW12      30.06R WCI  -7
SIOUX CITY     MOCLDY    16   5  62 N9        30.14R WCI   4
SPENCER        PTCLDY    11   1  64 NW13      30.08R WCI  -4
$$

ABBREVIATIONS USED IN REMARKS
   TC - TEMPERATURE IN CELSIUS
  WCI - WIND CHILL INDEX
   HX - HEAT INDEX
  VSB - VISIBILITY




USA.gov is the U.S. government's official web portal to all federal, state and local government web resources and services.